Regional Weather Roundup
Issued by NWS

Home | Current Version | Previous Version | Text Only | Print | Product List | Glossary Off
Versions: 1 2 3 4 5 6 7 8 9 10 11 12 13 14 15 16 17 18 19 20 21 22 23 24 25 26 27 28 29 30 31 32 33 34 35 36 37 38 39 40 41 42 43 44 45 46 47 48 49 50

000
ASUS45 KBOI 201110
RWRID
WEATHER ROUNDUP FOR IDAHO
NATIONAL WEATHER SERVICE BOISE ID
500 AM MDT MON OCT 20 2014

NOTE: "FAIR" INDICATES FEW OR NO CLOUDS BELOW 12000 FEET
WITH NO SIGNIFICANT WEATHER AND/OR OBSTRUCTIONS TO VISIBILITY

IDZ012-014-201200-
SOUTHWEST IDAHO


CITY           SKY/WX    TMP DP  RH WIND       PRES   REMARKS
BOISE          CLEAR     55  31  39 SE8       29.85F
CALDWELL       CLEAR     45  28  53 CALM      29.87S
MOUNTAIN HOME  CLEAR     56  32  41 SE13      29.87F
$$

IDZ016-017-201200-
SOUTHCENTRAL IDAHO


CITY           SKY/WX    TMP DP  RH WIND       PRES   REMARKS
BURLEY         PTCLDY    43  33  68 NE5       29.97S
JEROME         LGT RAIN  50  28  42 NE15      29.96S
TWIN FALLS     CLEAR     61  30  31 SE9       29.95R
$$

IDZ019>023-201200-
SOUTHEAST IDAHO


CITY           SKY/WX    TMP DP  RH WIND       PRES   REMARKS
IDAHO FALLS    PTCLDY    34  29  82 N7        30.06S WCI  28
POCATELLO      CLEAR     34  30  85 N3        30.03F
REXBURG        CLEAR     34  29  82 NE5       30.07S WCI  30
$$

IDZ006-010-011-018-031-032-201200-
CENTRAL IDAHO MOUNTAINS


CITY           SKY/WX    TMP DP  RH WIND       PRES   REMARKS
MCCALL         CLEAR     35  30  82 CALM      29.94F
HAILEY         CLEAR     41  30  65 NW10      30.07F
STANLEY          N/A     27  23  85 CALM      30.08F
SALMON         NOT AVBL
CHALLIS        CLEAR     36  27  69 CALM      30.05S
$$

IDZ002-004-006-007-026-201200-
NORTHERN IDAHO


CITY           SKY/WX    TMP DP  RH WIND       PRES   REMARKS
LEWISTON       CLEAR     52  43  71 NW3       29.76R
LOWELL           N/A     45  43  93 VRB6      29.89S
COEUR D`ALENE  CLEAR     46  45  93 E10       29.77S
MULLAN PASS    CLEAR     48  30  49 VRB7      29.91F
$$



USA.gov is the U.S. government's official web portal to all federal, state and local government web resources and services.